This is the latest recevied weather packets stored in our database for station/object KI4HRG. If no packets are shown the sender has not sent any weather packets the latest 10 day(s).
| Time | Temp. | Humidity | Pressure | Rain* | Wind** | Luminosity | Snow |
|---|---|---|---|---|---|---|---|
| 1787682014 | 33.89° C | 44% | 1016.5 hPa | 0 mm | - | 583 W/m² | - |
| 1787681708 | 33.33° C | 46% | 1016.5 hPa | 0 mm | - | 636 W/m² | - |
| 1787681403 | 33.89° C | 45% | 1016.7 hPa | 0 mm | - | 673 W/m² | - |
| 1787681097 | 33.89° C | 44% | 1016.6 hPa | 0 mm | - | 696 W/m² | - |
| 1787680792 | 33.33° C | 45% | 1016.8 hPa | 0 mm | - | 684 W/m² | - |
| 1787680487 | 33.33° C | 46% | 1016.8 hPa | 0 mm | - | 710 W/m² | - |
| 1787680185 | 33.33° C | 47% | 1016.9 hPa | 0 mm | - | 702 W/m² | - |
| 1787679879 | 33.89° C | 46% | 1016.9 hPa | 0 mm | - | 681 W/m² | - |
| 1787679574 | 34.44° C | 45% | 1017.1 hPa | 0 mm | - | 656 W/m² | - |
| 1787679270 | 34.44° C | 44% | 1017 hPa | 0 mm | - | 642 W/m² | - |
| 1787678965 | 33.89° C | 45% | 1017.1 hPa | 0 mm | - | 642 W/m² | - |
| 1787678665 | 33.89° C | 45% | 1017 hPa | 0 mm | - | 633 W/m² | - |
| 1787678359 | 34.44° C | 45% | 1017 hPa | 0 mm | - | 653 W/m² | - |
| 1787678055 | 33.89° C | 45% | 1017.2 hPa | 0 mm | - | 644 W/m² | - |
| 1787677749 | 32.78° C | 47% | 1017.3 hPa | 0 mm | - | 669 W/m² | - |
| 1787677449 | 32.78° C | 48% | 1017.4 hPa | 0 mm | - | 672 W/m² | - |
| 1787677143 | 33.89° C | 47% | 1017.6 hPa | 0 mm | - | 645 W/m² | - |
| 1787676838 | 32.78° C | 47% | 1017.5 hPa | 0 mm | - | 657 W/m² | - |
| 1787676532 | 32.78° C | 47% | 1017.8 hPa | 0 mm | - | 679 W/m² | - |
| 1787676230 | 32.78° C | 47% | 1017.8 hPa | 0 mm | - | 686 W/m² | - |
| 1787675930 | 32.22° C | 48% | 1017.9 hPa | 0 mm | - | 665 W/m² | - |
| 1787675626 | 32.78° C | 47% | 1018 hPa | 0 mm | - | 708 W/m² | - |
| 1787675324 | 32.78° C | 48% | 1018 hPa | 0 mm | - | 303 W/m² | - |
| 1787675019 | 33.89° C | 46% | 1018 hPa | 0 mm | - | 704 W/m² | - |
| 1787674714 | 33.33° C | 48% | 1018.1 hPa | 0 mm | - | 724 W/m² | - |
* Rain latest hour (hover to see other rain measurements)
** Current wind speed in m/s (hover to see current wind gust speed)